User: anonymous   Login
Location: ??????
(42.0089°N, 44.3281°E)
Time: 18:04:25
(UTC+00:00)
Language:

ARGOS - Orbit

View from above orbital plane
View from above orbital plane
View from above satellite
View from above satellite

Ground track
Ground track

The orbit data is extracted from the following two-line orbital elements,

1 25634U 99008A   22018.90118434  .00000011  00000-0  24737-4 0  9998
2 25634  98.4031  40.8009 0010862  39.2282 320.9680 14.19414060185823
Epoch (UTC): 18 January 2022 21:37:42
Eccentricity: 0.0010862
inclination: 98.4031°
perigee height: 819 km
apogee height: 835 km
right ascension of ascending node: 40.8009°
argument of perigee: 39.2282°
revolutions per day: 14.19414060
mean anomaly at epoch: 320.9680°
orbit number at epoch: 18582

The dashed part of the orbit path shows where the satellite is in the earth's shadow,  

DLR